Location: Lane
(33.5226°N, 79.8788°W)
Time: 19:49:50
(UTC+00:00)

Courier 1B Rocket - Pass Details

Date: 09 October 2022
Orbit: 920 x 1202 km, 28.3° (Epoch: 01 December)

Event Time Altitude Azimuth Distance (km) Brightness Sun altitude
Rises 01:12:36 0° 269° (W) 3,820 9.2 -29.4°
Reaches altitude 10° 01:15:30 10° 263° (W) 2,820 8.2 -30.0°
Enters shadow 01:21:32 45° 203° (SSW) 1,307 5.6 -31.3°
Maximum altitude 01:21:56 46° 193° (SSW) 1,293 - -31.3°
Drops below altitude 10° 01:28:01 10° 121° (ESE) 2,652 - -32.6°
Sets 01:30:40 0° 115° (ESE) 3,573 - -33.1°
